星链-5217 (STARLINK-5217 )

导读

STARLINK-5217是美国SpaceX公司星链(Starlink)卫星互联网星座的一员,于2022年10月20日发射。星链星座部署在近地轨道,旨在为全球提供高速宽带互联网服务,尤其聚焦偏远地区覆盖。该卫星采用平板设计、氪霍尔推进器,具备自主避撞能力,寿命末期会主动离轨再入大气层销毁,减少太空垃圾影响,服务预计可持续至2027-2029年左右。

基本信息
目录编号:
54098
目录名称:
STARLINK-5217
国际标识:
2022-136AZ
轨道中心:
EARTH
卫星名称:
星链-5217
卫星全名:
星链-5217 (STARLINK-5217 )
卫星状态:
在轨 (已飞行1416 天)
发射日期:
2022-10-20 UTC
国别 :
美国 (US)
星等 :
--
轨道信息
数据来源 国际轨道数据 AOE轨道数据
星历时间 2026-09-05T11:56:25+0800
6小时前
查看轨道信息
2026-08-30T04:00:00+0800
6天前
查看轨道信息
半长轴 6917.915km 6917.864km
偏心率 0.0001132 0.0000948
轨道倾角 53.160° 53.160°
近地点辐角 75.901° 74.455°
升交点赤经 248.196° 276.654°
平近点角 284.211° 78.932°
近地点 538.994km 539.071km
远地点 540.562km 540.383km
周期 95.438分钟 95.437分钟
每日圈数 15.088287 15.088456
详细信息
固有亮度:
5
最大亮度:
2.5
卫星平台:
Starlink v1.5
覆盖范围:
全球
运营商:
太空探索技术公司
运营商所在国:
美国
制造商(研发单位):
太空探索技术公司
制造商所在国:
美国
使用方式:
暂无
卫星简介
星链(Starlink)计划是由太空探索技术公司(SpaceX)提出的一个巨型低轨卫星互联网星座项目,计划在2019年至2024年间在太空搭建由约1.2万颗卫星组成的“星链”网络,其中1584颗将部署在地球上空550千米处的近地轨道,并从2020年开始工作。该卫星仍在工作。
2D轨道图
3D轨道图
轨道高度分析图
轨道倾角分析图
轨道综合分析图
查看轨道综合分析图
交会数据列表
事件ID 空间交会对象 最接近时刻(TCA) 交会距离 交会风险概率(CRP) 交会风险指数(CRI) 操作
CDM_260907-063705-409806-240622
STRIX 2 (62406)
2026-09-07T
06:37:38+0000
1.932 km
极远距离
1.938795E-6 低风险 0.41